Time,TemperatureF,DewpointF,PressureIn,WindDirection,WindDirectionDegrees,WindSpeedMPH,WindSpeedGustMPH,Humidity,HourlyPrecipIn,Conditions,Clouds,dailyrainin,SoftwareType,DateUTC
2013-06-09 00:09:00,67.0,58.9,30.01,East,94,0.0,1.0,75,0.00,,,0.00,WUHU216DAVISVP2,2013-06-09 04:09:00,
2013-06-09 00:10:00,66.9,58.8,30.01,East,94,0.0,1.0,75,0.00,,,0.00,WUHU216DAVISVP2,2013-06-09 04:10:00,
2013-06-09 00:15:00,66.6,58.9,30.02,East,96,0.0,1.0,76,0.00,,,0.00,WUHU216DAVISVP2,2013-06-09 04:15:00,
2013-06-09 00:31:00,67.6,59.2,30.02,SE,139,3.0,5.0,74,0.00,,,0.00,WUHU216DAVISVP2,2013-06-09 04:31:00,
2013-06-09 00:36:00,67.9,59.1,30.02,SSE,154,3.0,5.0,73,0.00,,,0.00,WUHU216DAVISVP2,2013-06-09 04:36:00,
2013-06-09 00:41:00,68.1,59.3,30.02,SSE,148,1.0,5.0,73,0.00,,,0.00,WUHU216DAVISVP2,2013-06-09 04:41:00,
2013-06-09 00:53:00,67.9,59.4,30.02,SSE,156,2.0,5.0,74,0.00,,,0.00,WUHU216DAVISVP2,2013-06-09 04:53:00,
2013-06-09 00:58:00,67.7,59.3,30.02,SE,127,3.0,4.0,74,0.00,,,0.00,WUHU216DAVISVP2,2013-06-09 04:58:00,
2013-06-09 01:15:00,67.4,59.7,30.02,SE,135,1.0,5.0,76,0.00,,,0.00,WUHU216DAVISVP2,2013-06-09 05:15:00,
2013-06-09 01:20:00,67.3,59.9,30.03,SSE,160,2.0,5.0,77,0.00,,,0.00,WUHU216DAVISVP2,2013-06-09 05:20:00,
2013-06-09 01:37:00,67.3,60.3,30.02,ESE,120,2.0,5.0,78,0.00,,,0.00,WUHU216DAVISVP2,2013-06-09 05:37:00,
2013-06-09 01:42:00,67.1,60.1,30.02,ESE,122,2.0,5.0,78,0.00,,,0.00,WUHU216DAVISVP2,2013-06-09 05:42:00,
2013-06-09 01:47:00,67.0,60.0,30.02,SE,130,2.0,5.0,78,0.00,,,0.00,WUHU216DAVISVP2,2013-06-09 05:47:00,
2013-06-09 01:59:00,66.7,60.1,30.03,SE,135,4.0,5.0,79,0.00,,,0.00,WUHU216DAVISVP2,2013-06-09 05:59:00,
2013-06-09 02:04:00,66.6,59.9,30.03,SE,125,1.0,5.0,79,0.00,,,0.00,WUHU216DAVISVP2,2013-06-09 06:04:00,
2013-06-09 02:21:00,66.4,60.0,30.02,ESE,117,1.0,4.0,80,0.00,,,0.00,WUHU216DAVISVP2,2013-06-09 06:21:00,
2013-06-09 02:26:00,66.3,60.3,30.03,SE,129,4.0,4.0,81,0.00,,,0.00,WUHU216DAVISVP2,2013-06-09 06:26:00,
2013-06-09 02:31:00,66.4,60.4,30.03,SE,129,2.0,5.0,81,0.00,,,0.00,WUHU216DAVISVP2,2013-06-09 06:31:00,
2013-06-09 02:43:00,66.6,60.6,30.02,SE,143,3.0,5.0,81,0.00,,,0.00,WUHU216DAVISVP2,2013-06-09 06:43:00,
2013-06-09 02:48:00,66.8,60.8,30.02,SE,127,3.0,5.0,81,0.00,,,0.00,WUHU216DAVISVP2,2013-06-09 06:48:00,
2013-06-09 03:05:00,66.9,60.9,30.02,ESE,117,1.0,5.0,81,0.00,,,0.00,WUHU216DAVISVP2,2013-06-09 07:05:00,
2013-06-09 03:10:00,66.9,60.9,30.02,ESE,123,3.0,6.0,81,0.00,,,0.00,WUHU216DAVISVP2,2013-06-09 07:10:00,
2013-06-09 03:27:00,66.5,60.9,30.02,SE,126,2.0,5.0,82,0.00,,,0.00,WUHU216DAVISVP2,2013-06-09 07:27:00,
2013-06-09 03:32:00,66.4,60.8,30.02,ESE,117,2.0,5.0,82,0.00,,,0.00,WUHU216DAVISVP2,2013-06-09 07:32:00,
2013-06-09 03:48:00,66.2,60.9,30.01,ESE,104,3.0,4.0,83,0.00,,,0.00,WUHU216DAVISVP2,2013-06-09 07:48:00,
2013-06-09 03:53:00,66.1,60.8,30.01,ESE,106,2.0,4.0,83,0.00,,,0.00,WUHU216DAVISVP2,2013-06-09 07:53:00,
2013-06-09 04:10:00,66.0,61.1,30.02,SE,141,0.0,3.0,84,0.00,,,0.00,WUHU216DAVISVP2,2013-06-09 08:10:00,
2013-06-09 04:15:00,66.1,61.2,30.02,ESE,117,2.0,3.0,84,0.00,,,0.00,WUHU216DAVISVP2,2013-06-09 08:15:00,
2013-06-09 04:32:00,66.4,61.1,30.02,ESE,120,0.0,4.0,83,0.00,,,0.00,WUHU216DAVISVP2,2013-06-09 08:32:00,
2013-06-09 04:37:00,66.4,61.1,30.02,SE,127,0.0,4.0,83,0.00,,,0.00,WUHU216DAVISVP2,2013-06-09 08:37:00,
2013-06-09 04:54:00,66.3,61.3,30.02,SE,127,0.0,3.0,84,0.00,,,0.00,WUHU216DAVISVP2,2013-06-09 08:54:00,
2013-06-09 04:59:00,66.3,61.3,30.02,ESE,114,0.0,3.0,84,0.00,,,0.00,WUHU216DAVISVP2,2013-06-09 08:59:00,
2013-06-09 05:16:00,66.1,61.2,30.02,East,98,1.0,5.0,84,0.00,,,0.00,WUHU216DAVISVP2,2013-06-09 09:16:00,
2013-06-09 05:21:00,66.2,61.3,30.02,ESE,109,2.0,5.0,84,0.00,,,0.00,WUHU216DAVISVP2,2013-06-09 09:21:00,
2013-06-09 05:38:00,66.1,61.1,30.02,ESE,102,5.0,5.0,84,0.00,,,0.00,WUHU216DAVISVP2,2013-06-09 09:38:00,
2013-06-09 05:43:00,66.1,61.1,30.02,ESE,106,2.0,5.0,84,0.00,,,0.00,WUHU216DAVISVP2,2013-06-09 09:43:00,
2013-06-09 05:48:00,66.0,61.0,30.02,East,94,3.0,5.0,84,0.00,,,0.00,WUHU216DAVISVP2,2013-06-09 09:48:00,
2013-06-09 06:00:00,65.6,61.0,30.02,East,97,2.0,5.0,85,0.00,,,0.00,WUHU216DAVISVP2,2013-06-09 10:00:00,
2013-06-09 06:05:00,65.5,61.2,30.02,East,96,3.0,4.0,86,0.00,,,0.00,WUHU216DAVISVP2,2013-06-09 10:05:00,
2013-06-09 06:10:00,65.3,61.0,30.02,East,101,4.0,5.0,86,0.00,,,0.00,WUHU216DAVISVP2,2013-06-09 10:10:00,
2013-06-09 06:22:00,65.2,60.9,30.02,ENE,75,4.0,5.0,86,0.00,,,0.00,WUHU216DAVISVP2,2013-06-09 10:22:00,
2013-06-09 06:27:00,65.3,61.0,30.02,East,101,2.0,6.0,86,0.00,,,0.00,WUHU216DAVISVP2,2013-06-09 10:27:00,
2013-06-09 06:32:00,65.3,61.0,30.02,ENE,77,2.0,6.0,86,0.00,,,0.00,WUHU216DAVISVP2,2013-06-09 10:32:00,
2013-06-09 06:44:00,65.2,60.9,30.02,East,91,1.0,5.0,86,0.00,,,0.00,WUHU216DAVISVP2,2013-06-09 10:44:00,
2013-06-09 06:49:00,65.2,60.9,30.03,East,91,3.0,5.0,86,0.00,,,0.00,WUHU216DAVISVP2,2013-06-09 10:49:00,
2013-06-09 07:06:00,65.4,61.1,30.03,ESE,103,2.0,5.0,86,0.00,,,0.00,WUHU216DAVISVP2,2013-06-09 11:06:00,
2013-06-09 07:11:00,65.4,61.1,30.03,East,86,2.0,5.0,86,0.00,,,0.00,WUHU216DAVISVP2,2013-06-09 11:11:00,
2013-06-09 07:16:00,65.5,61.2,30.03,East,99,1.0,5.0,86,0.00,,,0.00,WUHU216DAVISVP2,2013-06-09 11:16:00,
2013-06-09 07:28:00,65.6,61.3,30.03,East,99,2.0,3.0,86,0.00,,,0.00,WUHU216DAVISVP2,2013-06-09 11:28:00,
2013-06-09 07:33:00,65.7,61.4,30.04,ESE,109,2.0,3.0,86,0.00,,,0.00,WUHU216DAVISVP2,2013-06-09 11:33:00,
2013-06-09 07:49:00,66.1,61.5,30.03,East,96,4.0,4.0,85,0.00,,,0.00,WUHU216DAVISVP2,2013-06-09 11:49:00,
2013-06-09 07:54:00,66.3,61.7,30.03,East,80,3.0,5.0,85,0.00,,,0.00,WUHU216DAVISVP2,2013-06-09 11:54:00,
2013-06-09 08:11:00,66.7,61.4,30.03,East,96,3.0,6.0,83,0.00,,,0.00,WUHU216DAVISVP2,2013-06-09 12:11:00,
2013-06-09 08:16:00,66.9,61.6,30.03,East,94,5.0,7.0,83,0.00,,,0.00,WUHU216DAVISVP2,2013-06-09 12:16:00,
2013-06-09 08:22:00,67.0,61.7,30.03,East,96,5.0,7.0,83,0.00,,,0.00,WUHU216DAVISVP2,2013-06-09 12:22:00,
2013-06-09 08:33:00,67.5,61.9,30.03,ESE,103,3.0,9.0,82,0.00,,,0.00,WUHU216DAVISVP2,2013-06-09 12:33:00,
2013-06-09 08:38:00,67.6,62.0,30.03,ESE,106,6.0,8.0,82,0.00,,,0.00,WUHU216DAVISVP2,2013-06-09 12:38:00,
2013-06-09 08:55:00,68.2,62.2,30.03,East,100,4.0,6.0,81,0.00,,,0.00,WUHU216DAVISVP2,2013-06-09 12:55:00,
2013-06-09 09:00:00,68.3,62.3,30.03,SE,127,4.0,7.0,81,0.00,,,0.00,WUHU216DAVISVP2,2013-06-09 13:00:00,
2013-06-09 09:17:00,68.5,62.5,30.03,ESE,103,5.0,8.0,81,0.00,,,0.00,WUHU216DAVISVP2,2013-06-09 13:17:00,
2013-06-09 09:22:00,68.6,62.6,30.02,SE,137,3.0,7.0,81,0.00,,,0.00,WUHU216DAVISVP2,2013-06-09 13:22:00,
2013-06-09 09:27:00,68.9,62.9,30.02,ESE,103,4.0,7.0,81,0.00,,,0.00,WUHU216DAVISVP2,2013-06-09 13:27:00,
2013-06-09 09:39:00,69.6,63.2,30.02,East,94,5.0,8.0,80,0.00,,,0.00,WUHU216DAVISVP2,2013-06-09 13:39:00,
2013-06-09 09:44:00,69.9,63.2,30.02,ESE,103,3.0,8.0,79,0.00,,,0.00,WUHU216DAVISVP2,2013-06-09 13:44:00,
2013-06-09 10:01:00,70.4,63.3,30.02,ENE,75,4.0,9.0,78,0.00,,,0.00,WUHU216DAVISVP2,2013-06-09 14:01:00,
2013-06-09 10:06:00,70.7,63.6,30.02,ENE,74,4.0,8.0,78,0.00,,,0.00,WUHU216DAVISVP2,2013-06-09 14:06:00,
2013-06-09 10:23:00,72.2,64.2,30.02,East,99,6.0,8.0,76,0.00,,,0.00,WUHU216DAVISVP2,2013-06-09 14:23:00,
2013-06-09 10:28:00,72.3,64.3,30.02,East,88,10.0,10.0,76,0.00,,,0.00,WUHU216DAVISVP2,2013-06-09 14:28:00,
2013-06-09 10:45:00,72.0,64.0,30.01,East,101,4.0,10.0,76,0.00,,,0.00,WUHU216DAVISVP2,2013-06-09 14:45:00,
2013-06-09 10:50:00,72.0,64.4,30.01,ESE,122,3.0,8.0,77,0.00,,,0.00,WUHU216DAVISVP2,2013-06-09 14:50:00,
2013-06-09 10:55:00,72.1,64.1,30.01,SE,141,2.0,8.0,76,0.00,,,0.00,WUHU216DAVISVP2,2013-06-09 14:55:00,
2013-06-09 11:07:00,71.9,64.3,30.01,ESE,110,5.0,6.0,77,0.00,,,0.00,WUHU216DAVISVP2,2013-06-09 15:07:00,
2013-06-09 11:12:00,72.0,64.4,30.01,SE,144,2.0,6.0,77,0.00,,,0.00,WUHU216DAVISVP2,2013-06-09 15:12:00,
2013-06-09 11:29:00,72.3,64.7,30.01,East,84,2.0,5.0,77,0.00,,,0.00,WUHU216DAVISVP2,2013-06-09 15:29:00,
2013-06-09 11:34:00,72.4,64.8,30.01,ESE,112,3.0,6.0,77,0.00,,,0.00,WUHU216DAVISVP2,2013-06-09 15:34:00,
2013-06-09 11:39:00,72.6,64.6,30.01,ESE,113,2.0,6.0,76,0.00,,,0.00,WUHU216DAVISVP2,2013-06-09 15:39:00,
2013-06-09 11:50:00,73.3,64.9,30.01,ESE,110,3.0,5.0,75,0.00,,,0.00,WUHU216DAVISVP2,2013-06-09 15:50:00,
2013-06-09 11:55:00,73.5,65.2,30.01,SE,127,2.0,4.0,75,0.00,,,0.00,WUHU216DAVISVP2,2013-06-09 15:55:00,
2013-06-09 12:12:00,74.1,65.1,30.01,ESE,119,2.0,5.0,73,0.00,,,0.00,WUHU216DAVISVP2,2013-06-09 16:12:00,
2013-06-09 12:17:00,74.2,64.8,30.01,ESE,106,5.0,5.0,72,0.00,,,0.00,WUHU216DAVISVP2,2013-06-09 16:17:00,
2013-06-09 12:34:00,75.4,64.3,30.00,SE,134,5.0,7.0,68,0.00,,,0.00,WUHU216DAVISVP2,2013-06-09 16:34:00,
2013-06-09 12:39:00,75.4,64.3,30.00,SE,136,4.0,7.0,68,0.00,,,0.00,WUHU216DAVISVP2,2013-06-09 16:39:00,
2013-06-09 12:56:00,76.6,63.7,30.00,ESE,120,6.0,11.0,64,0.00,,,0.00,WUHU216DAVISVP2,2013-06-09 16:56:00,
2013-06-09 13:01:00,76.9,64.5,29.99,ESE,115,6.0,11.0,65,0.00,,,0.00,WUHU216DAVISVP2,2013-06-09 17:01:00,
2013-06-09 13:18:00,77.6,63.5,29.98,ESE,120,5.0,14.0,62,0.00,,,0.00,WUHU216DAVISVP2,2013-06-09 17:18:00,
2013-06-09 13:23:00,78.1,62.1,29.98,ESE,108,5.0,14.0,58,0.00,,,0.00,WUHU216DAVISVP2,2013-06-09 17:23:00,
2013-06-09 13:28:00,78.7,63.6,29.97,SSE,159,3.0,9.0,60,0.00,,,0.00,WUHU216DAVISVP2,2013-06-09 17:28:00,
2013-06-09 13:40:00,79.1,62.8,29.97,East,92,4.0,9.0,57,0.00,,,0.00,WUHU216DAVISVP2,2013-06-09 17:40:00,
2013-06-09 13:45:00,79.2,59.6,29.97,South,174,5.0,13.0,51,0.00,,,0.00,WUHU216DAVISVP2,2013-06-09 17:45:00,
2013-06-09 14:02:00,80.4,60.7,29.96,South,174,7.0,13.0,51,0.00,,,0.00,WUHU216DAVISVP2,2013-06-09 18:02:00,
2013-06-09 14:07:00,80.0,59.2,29.96,SW,217,6.0,12.0,49,0.00,,,0.00,WUHU216DAVISVP2,2013-06-09 18:07:00,
2013-06-09 14:24:00,79.8,60.2,29.96,SSE,163,11.0,11.0,51,0.00,,,0.00,WUHU216DAVISVP2,2013-06-09 18:24:00,
2013-06-09 14:29:00,80.1,59.3,29.95,SE,136,6.0,11.0,49,0.00,,,0.00,WUHU216DAVISVP2,2013-06-09 18:29:00,
2013-06-09 14:46:00,80.1,59.9,29.95,SSE,148,3.0,11.0,50,0.00,,,0.00,WUHU216DAVISVP2,2013-06-09 18:46:00,
2013-06-09 14:51:00,80.2,59.4,29.95,SE,143,10.0,11.0,49,0.00,,,0.00,WUHU216DAVISVP2,2013-06-09 18:51:00,
2013-06-09 14:56:00,80.6,60.2,29.95,SE,127,7.0,11.0,50,0.00,,,0.00,WUHU216DAVISVP2,2013-06-09 18:56:00,
2013-06-09 15:08:00,80.6,59.7,29.94,ESE,115,6.0,12.0,49,0.00,,,0.00,WUHU216DAVISVP2,2013-06-09 19:08:00,
2013-06-09 15:13:00,81.0,60.0,29.94,SSE,147,7.0,12.0,49,0.00,,,0.00,WUHU216DAVISVP2,2013-06-09 19:13:00,
2013-06-09 15:30:00,81.7,59.6,29.93,SSE,148,6.0,14.0,47,0.00,,,0.00,WUHU216DAVISVP2,2013-06-09 19:30:00,
2013-06-09 15:35:00,81.5,59.4,29.92,SE,134,5.0,14.0,47,0.00,,,0.00,WUHU216DAVISVP2,2013-06-09 19:35:00,
2013-06-09 15:40:00,81.5,58.1,29.92,SSE,161,6.0,14.0,45,0.00,,,0.00,WUHU216DAVISVP2,2013-06-09 19:40:00,
2013-06-09 15:52:00,82.2,56.8,29.92,SE,141,7.0,14.0,42,0.00,,,0.00,WUHU216DAVISVP2,2013-06-09 19:52:00,
2013-06-09 15:56:00,82.7,57.9,29.92,SSE,149,11.0,15.0,43,0.00,,,0.00,WUHU216DAVISVP2,2013-06-09 19:56:00,
2013-06-09 16:01:00,83.0,56.8,29.92,ESE,120,11.0,16.0,41,0.00,,,0.00,WUHU216DAVISVP2,2013-06-09 20:01:00,
2013-06-09 16:13:00,82.8,57.3,29.91,SSE,161,6.0,16.0,42,0.00,,,0.00,WUHU216DAVISVP2,2013-06-09 20:13:00,
2013-06-09 16:18:00,82.9,58.1,29.91,SSE,166,9.0,15.0,43,0.00,,,0.00,WUHU216DAVISVP2,2013-06-09 20:18:00,
2013-06-09 16:35:00,82.6,57.8,29.91,ESE,110,13.0,17.0,43,0.00,,,0.00,WUHU216DAVISVP2,2013-06-09 20:35:00,
2013-06-09 16:40:00,81.9,57.9,29.91,SE,141,4.0,17.0,44,0.00,,,0.00,WUHU216DAVISVP2,2013-06-09 20:40:00,
2013-06-09 16:57:00,80.7,58.0,29.90,SE,124,6.0,14.0,46,0.00,,,0.00,WUHU216DAVISVP2,2013-06-09 20:57:00,
2013-06-09 17:02:00,80.9,58.2,29.90,SE,133,7.0,14.0,46,0.00,,,0.00,WUHU216DAVISVP2,2013-06-09 21:02:00,
2013-06-09 17:19:00,80.7,58.0,29.90,SSE,153,6.0,13.0,46,0.00,,,0.00,WUHU216DAVISVP2,2013-06-09 21:19:00,
2013-06-09 17:24:00,80.6,57.9,29.90,SE,127,7.0,13.0,46,0.00,,,0.00,WUHU216DAVISVP2,2013-06-09 21:24:00,
2013-06-09 17:29:00,80.5,58.4,29.90,SE,136,4.0,13.0,47,0.00,,,0.00,WUHU216DAVISVP2,2013-06-09 21:29:00,
2013-06-09 17:41:00,80.2,58.7,29.90,ESE,106,8.0,11.0,48,0.00,,,0.00,WUHU216DAVISVP2,2013-06-09 21:41:00,
2013-06-09 17:46:00,80.1,58.6,29.90,ESE,120,8.0,11.0,48,0.00,,,0.00,WUHU216DAVISVP2,2013-06-09 21:46:00,
2013-06-09 17:51:00,79.9,58.5,29.90,SE,138,6.0,11.0,48,0.00,,,0.00,WUHU216DAVISVP2,2013-06-09 21:51:00,
2013-06-09 18:03:00,79.6,58.2,29.90,SE,125,6.0,11.0,48,0.00,,,0.00,WUHU216DAVISVP2,2013-06-09 22:03:00,
2013-06-09 18:08:00,79.5,58.7,29.90,SE,124,4.0,11.0,49,0.00,,,0.00,WUHU216DAVISVP2,2013-06-09 22:08:00,
2013-06-09 18:25:00,79.4,59.7,29.90,SE,139,6.0,9.0,51,0.00,,,0.00,WUHU216DAVISVP2,2013-06-09 22:25:00,
2013-06-09 18:30:00,79.3,59.0,29.89,SE,136,3.0,9.0,50,0.00,,,0.00,WUHU216DAVISVP2,2013-06-09 22:30:00,
2013-06-09 18:35:00,79.2,60.1,29.89,ESE,115,5.0,8.0,52,0.00,,,0.00,WUHU216DAVISVP2,2013-06-09 22:35:00,
2013-06-09 18:47:00,79.2,60.2,29.88,ESE,122,2.0,7.0,52,0.00,,,0.00,WUHU216DAVISVP2,2013-06-09 22:47:00,
2013-06-09 18:52:00,79.2,60.2,29.88,ESE,115,3.0,7.0,52,0.00,,,0.00,WUHU216DAVISVP2,2013-06-09 22:52:00,
2013-06-09 19:09:00,79.4,60.2,29.87,SE,127,5.0,7.0,52,0.00,,,0.00,WUHU216DAVISVP2,2013-06-09 23:09:00,
2013-06-09 19:14:00,79.3,60.1,29.87,East,100,3.0,10.0,52,0.00,,,0.00,WUHU216DAVISVP2,2013-06-09 23:14:00,
2013-06-09 19:31:00,79.0,61.1,29.87,East,100,5.0,10.0,54,0.00,,,0.00,WUHU216DAVISVP2,2013-06-09 23:31:00,
2013-06-09 19:36:00,78.9,60.3,29.87,SE,141,10.0,15.0,53,0.00,,,0.00,WUHU216DAVISVP2,2013-06-09 23:36:00,
2013-06-09 19:52:00,77.2,61.3,29.88,SE,127,8.0,20.0,58,0.00,,,0.00,WUHU216DAVISVP2,2013-06-09 23:52:00,
2013-06-09 19:57:00,76.7,61.3,29.88,South,169,9.0,20.0,59,0.00,,,0.00,WUHU216DAVISVP2,2013-06-09 23:57:00,
2013-06-09 20:02:00,76.4,61.5,29.88,SSE,154,7.0,20.0,60,0.00,,,0.00,WUHU216DAVISVP2,2013-06-10 00:02:00,
2013-06-09 20:14:00,75.9,61.5,29.88,SE,141,9.0,15.0,61,0.00,,,0.00,WUHU216DAVISVP2,2013-06-10 00:14:00,
2013-06-09 20:19:00,75.8,61.4,29.88,SE,135,8.0,15.0,61,0.00,,,0.00,WUHU216DAVISVP2,2013-06-10 00:19:00,
2013-06-09 20:36:00,75.4,61.0,29.88,SE,130,4.0,13.0,61,0.00,,,0.00,WUHU216DAVISVP2,2013-06-10 00:36:00,
2013-06-09 20:41:00,75.2,60.8,29.88,SE,130,3.0,11.0,61,0.00,,,0.00,WUHU216DAVISVP2,2013-06-10 00:41:00,
2013-06-09 20:58:00,74.6,61.6,29.88,SE,136,6.0,10.0,64,0.00,,,0.00,WUHU216DAVISVP2,2013-06-10 00:58:00,
2013-06-09 21:03:00,74.4,61.9,29.87,ESE,110,5.0,11.0,65,0.00,,,0.00,WUHU216DAVISVP2,2013-06-10 01:03:00,
2013-06-09 21:20:00,74.0,63.0,29.87,SE,135,9.0,15.0,68,0.00,,,0.00,WUHU216DAVISVP2,2013-06-10 01:20:00,
2013-06-09 21:25:00,73.8,63.2,29.87,SE,132,5.0,15.0,69,0.00,,,0.00,WUHU216DAVISVP2,2013-06-10 01:25:00,
2013-06-09 21:42:00,73.3,63.1,29.86,SSE,151,7.0,15.0,70,0.00,,,0.00,WUHU216DAVISVP2,2013-06-10 01:42:00,
2013-06-09 21:47:00,73.2,63.0,29.86,ESE,123,10.0,15.0,70,0.00,,,0.00,WUHU216DAVISVP2,2013-06-10 01:47:00,
2013-06-09 22:04:00,72.9,63.1,29.87,SE,129,4.0,11.0,71,0.00,,,0.00,WUHU216DAVISVP2,2013-06-10 02:04:00,
2013-06-09 22:09:00,72.7,63.3,29.87,ESE,113,7.0,11.0,72,0.00,,,0.00,WUHU216DAVISVP2,2013-06-10 02:09:00,
2013-06-09 22:26:00,72.5,63.5,29.87,SSE,150,7.0,13.0,73,0.00,,,0.00,WUHU216DAVISVP2,2013-06-10 02:26:00,
2013-06-09 22:31:00,72.4,63.8,29.87,ESE,115,7.0,13.0,74,0.00,,,0.00,WUHU216DAVISVP2,2013-06-10 02:31:00,
2013-06-09 22:36:00,72.3,63.7,29.87,SE,132,9.0,13.0,74,0.00,,,0.00,WUHU216DAVISVP2,2013-06-10 02:36:00,
2013-06-09 22:48:00,71.1,64.7,29.88,ESE,120,12.0,15.0,80,0.05,,,0.05,WUHU216DAVISVP2,2013-06-10 02:48:00,
2013-06-09 22:53:00,70.3,64.9,29.88,SE,127,9.0,17.0,83,0.06,,,0.07,WUHU216DAVISVP2,2013-06-10 02:53:00,
2013-06-09 22:58:00,69.5,65.5,29.88,SE,127,5.0,17.0,87,0.07,,,0.07,WUHU216DAVISVP2,2013-06-10 02:58:00,
2013-06-09 23:10:00,67.5,65.7,29.87,SE,133,1.0,17.0,94,0.09,,,0.09,WUHU216DAVISVP2,2013-06-10 03:10:00,
2013-06-09 23:15:00,67.2,65.7,29.87,ESE,123,3.0,12.0,95,0.10,,,0.10,WUHU216DAVISVP2,2013-06-10 03:15:00,
2013-06-09 23:32:00,66.7,65.5,29.87,SE,127,3.0,6.0,96,0.13,,,0.13,WUHU216DAVISVP2,2013-06-10 03:32:00,
2013-06-09 23:37:00,66.6,65.7,29.86,ESE,104,3.0,6.0,97,0.14,,,0.14,WUHU216DAVISVP2,2013-06-10 03:37:00,
2013-06-09 23:53:00,66.3,65.4,29.85,East,84,4.0,18.0,97,0.42,,,0.49,WUHU216DAVISVP2,2013-06-10 03:53:00,
2013-06-09 23:58:00,66.4,65.5,29.86,ESE,106,5.0,16.0,97,0.45,,,0.52,WUHU216DAVISVP2,2013-06-10 03:58:00,